Main page
METAR-TAF:

METAR-TAF

Airports :

Plant City Airport

Plant City, Florida, United States

latitude: 28-00-01N, longitude: 082-09-51W, elevation: 154 ft

Current weather observation

The report was made 25 minutes ago, at 13:35 UTC
Wind 12 mph from the East/Northeast with gusts up to 23 mph
Temperature 82°F
Humidity 66%
Pressure 30.07 in. Hg
Visibility: 10 miles
Overcast at a height of 3500 ft

METAR: KPCM 211335Z AUTO 06010G20KT 10SM OVC035 28/21 A3007 RMK AO2

Time: 10:00 (14:00 UTC)


TAF: missing

Weather observations and forecasts of more than 4000 airports (METAR and TAF reports).

The available stations are represented by yellow and red dots on the map.

Hover mouse over dot to see the name of the station.

Then click to see weather observations and forecasts.

To change the map : click on the green buttons with a black cross to zoom in, on the green button with a dash to zoom out, or on the green arrows for adjacent maps.


METAR-TAF: